Starlink 11673

operational
NORAD ID: 64318 Int'l Des: 2025-124 Owner: SPXS Country: US Constellation: starlink
LEOCIRCULAR

Starlink 11673について

説明を読み込み中...

リアルタイム位置

3D地球を読み込み中...

次回通過

高度履歴

Altitude vs Time

uPlot chart will show altitude changes over time

軌道要素

1 64318U 25124B 25307.72639258 .00248033 00000-0 18759-2 0 9997
2 64318 42.9986 68.4815 0000707 289.3075 70.7716 15.70883034 23026
Epoch: Nov 3, 2025 • Age: 10 hours

現在のステータス

高度 357.7 km
速度 7.70 km/s
衛星直下点 34.96°N, 107.56°E
打ち上げ日 Jun 10, 2025
運用期間 0.3 years
タイプ internet

技術仕様

分類 Payload
質量 960.00 kg
乾燥質量 910.00 kg
総質量 960.00 kg
長さ 0.30 m
直径 4.10 m
スパン 29.00 m
形状 Box + pan
製造者 SPXS
バスタイプ Starlink V2MD
フェーズステータス In Orbit
所有者/国 SPXS/US

大規模コンステレーション

Loading constellations...